Date String (YYYY-MM-DD hh:mm:ss) UTC,Instrument flags,absolute air pressure of the measurement (hPa),sample flow rate (lpm),inlet stack bypass flow (lpm),air temperature of the measurement (°C),ambient temperature measured by the external sensor (°C),aerosol sample conditioner tube jacket temperature (°C),OPC LED temperature (°C),internal box temperature (°C),relative humidity of the measurement (%),span deviation,mass concentration of particles derived from Lorenz-Mie calculation of OPC scattering (μg/m³),mass concentration of particles derived from Lorenz-Mie calculation of OPC scattering (μg/m³),mass concentration of particles derived from Lorenz-Mie calculation of OPC scattering (μg/m³)
DateTimeUTC,F1_M11,P_M11,Q1_M11,Q2_M11,T1_M11,T2_M11,T3_M11,T4_M11,T5_M11,U1_M11,ZSPAN_M11,X0_M11,X2_M11,X1_M11
2024-05-21 22:00:00,SystemResetWarning,0825.1,5.01,000.00,028.3,027.6,000.0,036.8,030.1,021.8,0000.0,0009.05,0005.50,0004.96
2024-05-21 22:01:00,SystemResetWarning,0825.2,5.01,000.00,028.4,027.6,000.0,036.8,030.1,021.8,0000.0,0009.03,0005.49,0004.96
2024-05-21 22:02:00,SystemResetWarning,0825.2,5.00,000.00,028.3,027.6,000.0,036.8,030.1,022.1,0000.0,0008.96,0005.48,0004.95
2024-05-21 22:03:00,SystemResetWarning,0825.2,5.00,000.00,028.3,027.6,000.0,036.8,030.1,022.0,0000.0,0009.31,0005.49,0004.95
2024-05-21 22:04:00,SystemResetWarning,0825.2,5.00,000.00,028.3,027.5,000.0,036.8,030.1,021.8,0000.0,0010.64,0005.49,0004.95
2024-05-21 22:05:00,SystemResetWarning,0825.2,4.99,000.00,028.3,027.5,000.0,036.8,030.0,022.0,0000.0,0010.97,0005.47,0004.95
2024-05-21 22:06:00,SystemResetWarning,0825.2,5.00,000.00,028.3,027.5,000.0,036.8,030.0,022.2,0000.0,0010.84,0005.46,0004.95
2024-05-21 22:07:00,SystemResetWarning,0825.2,5.00,000.00,028.3,027.5,000.0,036.8,029.9,022.1,0000.0,0010.59,0005.42,0004.94
2024-05-21 22:08:00,SystemResetWarning,0825.3,5.00,000.00,028.2,027.4,000.0,036.8,029.8,021.9,0000.0,0010.31,0005.36,0004.92
2024-05-21 22:09:00,SystemResetWarning,0825.2,5.01,000.00,028.2,027.3,000.0,036.8,029.8,021.6,0000.0,0010.56,0005.34,0004.91
2024-05-21 22:10:00,SystemResetWarning,0825.3,5.01,000.00,028.1,027.3,000.0,036.7,029.7,021.6,0000.0,0011.10,0005.32,0004.89
2024-05-21 22:11:00,SystemResetWarning,0825.3,4.99,000.00,028.1,027.2,000.0,036.7,029.7,021.5,0000.0,0011.19,0005.31,0004.86
2024-05-21 22:12:00,SystemResetWarning,0825.4,5.00,000.00,028.1,027.2,000.0,036.7,029.8,021.5,0000.0,0011.14,0005.28,0004.84
2024-05-21 22:13:00,SystemResetWarning,0825.4,5.00,000.00,028.1,027.2,000.0,036.7,029.8,021.7,0000.0,0011.08,0005.24,0004.80
2024-05-21 22:14:00,SystemResetWarning,0825.5,5.00,000.00,028.1,027.3,000.0,036.7,029.9,021.8,0000.0,0010.98,0005.18,0004.76
2024-05-21 22:15:00,SystemResetWarning,0825.5,5.00,000.00,028.1,027.3,000.0,036.7,029.8,021.8,0000.0,0009.56,0005.12,0004.71
2024-05-21 22:16:00,SystemResetWarning,0825.5,5.00,000.00,028.1,027.2,000.0,036.7,029.8,021.7,0000.0,0009.59,0005.06,0004.67
2024-05-21 22:17:00,SystemResetWarning,0825.5,5.01,000.00,028.0,027.2,000.0,036.7,029.7,021.7,0000.0,0009.55,0004.99,0004.62
2024-05-21 22:18:00,SystemResetWarning,0825.4,5.00,000.00,028.0,027.2,000.0,036.6,029.6,021.8,0000.0,0009.47,0004.94,0004.59
2024-05-21 22:19:00,SystemResetWarning,0825.4,4.99,000.00,028.0,027.1,000.0,036.6,029.6,021.7,0000.0,0009.48,0004.91,0004.56
2024-05-21 22:20:00,SystemResetWarning,0825.4,5.00,000.00,027.9,027.1,000.0,036.6,029.6,022.0,0000.0,0009.15,0004.86,0004.52
2024-05-21 22:21:00,SystemResetWarning,0825.3,5.02,000.00,027.9,027.1,000.0,036.6,029.6,021.9,0000.0,0008.48,0004.83,0004.49
2024-05-21 22:22:00,SystemResetWarning,0825.2,4.99,000.00,027.9,027.1,000.0,036.6,029.6,022.0,0000.0,0008.47,0004.83,0004.48
2024-05-21 22:23:00,SystemResetWarning,0825.2,4.99,000.00,027.9,027.1,000.0,036.5,029.6,022.1,0000.0,0009.27,0004.79,0004.47
2024-05-21 22:24:00,SystemResetWarning,0825.3,4.99,000.00,027.9,027.1,000.0,036.5,029.7,022.3,0000.0,0009.61,0004.80,0004.48
2024-05-21 22:25:00,SystemResetWarning,0825.3,5.00,000.00,027.9,027.1,000.0,036.5,029.7,022.1,0000.0,0009.35,0004.80,0004.49
2024-05-21 22:26:00,SystemResetWarning,0825.3,5.00,000.00,027.9,027.1,000.0,036.5,029.7,022.2,0000.0,0009.34,0004.82,0004.51
2024-05-21 22:27:00,SystemResetWarning,0825.3,5.00,000.00,027.9,027.2,000.0,036.5,029.7,022.6,0000.0,0009.08,0004.89,0004.54
2024-05-21 22:28:00,SystemResetWarning,0825.3,5.00,000.00,027.9,027.2,000.0,036.5,029.7,023.0,0000.0,0008.89,0004.93,0004.57
2024-05-21 22:29:00,SystemResetWarning,0825.3,5.00,000.00,027.9,027.2,000.0,036.5,029.7,022.1,0000.0,0008.98,0004.98,0004.59
2024-05-21 22:30:00,SystemResetWarning,0825.3,5.00,000.00,027.9,027.2,000.0,036.5,029.7,022.5,0000.0,0008.97,0005.01,0004.63
2024-05-21 22:31:00,SystemResetWarning,0825.3,5.00,000.00,027.9,027.2,000.0,036.5,029.6,022.1,0000.0,0008.95,0005.03,0004.67
2024-05-21 22:32:00,SystemResetWarning,0825.2,5.00,000.00,027.9,027.1,000.0,036.5,029.5,022.0,0000.0,0009.04,0005.11,0004.72
2024-05-21 22:33:00,SystemResetWarning,0825.2,5.00,000.00,027.9,027.1,000.0,036.5,029.5,022.1,0000.0,0009.00,0005.13,0004.77
2024-05-21 22:34:00,SystemResetWarning,0825.4,4.99,000.00,027.9,027.1,000.0,036.5,029.5,022.7,0000.0,0008.18,0005.16,0004.80
2024-05-21 22:35:00,SystemResetWarning,0825.4,5.00,000.00,027.9,027.1,000.0,036.4,029.6,022.7,0000.0,0007.98,0005.20,0004.83
2024-05-21 22:36:00,SystemResetWarning,0825.4,5.01,000.00,027.9,027.1,000.0,036.4,029.6,022.7,0000.0,0008.21,0005.24,0004.86
2024-05-21 22:37:00,SystemResetWarning,0825.3,5.00,000.00,027.9,027.1,000.0,036.4,029.6,022.5,0000.0,0008.72,0005.29,0004.89
2024-05-21 22:38:00,SystemResetWarning,0825.3,5.00,000.00,027.8,027.1,000.0,036.4,029.6,022.6,0000.0,0008.75,0005.30,0004.93
2024-05-21 22:39:00,SystemResetWarning,0825.2,5.00,000.00,027.8,027.1,000.0,036.4,029.6,022.5,0000.0,0009.01,0005.32,0004.96
2024-05-21 22:40:00,SystemResetWarning,0825.2,5.00,000.00,027.8,027.1,000.0,036.4,029.6,022.5,0000.0,0008.98,0005.33,0004.99
2024-05-21 22:41:00,SystemResetWarning,0825.3,5.00,000.00,027.9,027.1,000.0,036.4,029.6,022.3,0000.0,0009.06,0005.37,0005.01
2024-05-21 22:42:00,SystemResetWarning,0825.3,4.99,000.00,027.9,027.1,000.0,036.4,029.7,022.4,0000.0,0009.15,0005.40,0005.05
2024-05-21 22:43:00,SystemResetWarning,0825.4,4.98,000.00,027.9,027.1,000.0,036.4,029.7,022.4,0000.0,0009.25,0005.44,0005.09
2024-05-21 22:44:00,SystemResetWarning,0825.4,5.00,000.00,027.9,027.2,000.0,036.4,029.7,022.4,0000.0,0009.32,0005.47,0005.10
2024-05-21 22:45:00,SystemResetWarning,0825.4,5.01,000.00,027.9,027.2,000.0,036.4,029.7,022.3,0000.0,0009.54,0005.53,0005.11
2024-05-21 22:46:00,SystemResetWarning,0825.3,4.99,000.00,027.9,027.2,000.0,036.4,029.8,022.2,0000.0,0009.38,0005.52,0005.12
2024-05-21 22:47:00,SystemResetWarning,0825.3,4.98,000.00,027.9,027.2,000.0,036.4,029.8,022.0,0000.0,0009.25,0005.53,0005.14
2024-05-21 22:48:00,SystemResetWarning,0825.3,5.02,000.00,028.0,027.2,000.0,036.4,029.8,021.4,0000.0,0008.66,0005.50,0005.14
2024-05-21 22:49:00,SystemResetWarning,0825.4,5.00,000.00,028.0,027.3,000.0,036.4,029.8,020.7,0000.0,0008.56,0005.48,0005.13
2024-05-21 22:50:00,SystemResetWarning,0825.4,4.99,000.00,028.0,027.3,000.0,036.4,029.8,020.4,0000.0,0008.30,0005.50,0005.13
2024-05-21 22:51:00,SystemResetWarning,0825.4,4.99,000.00,028.0,027.3,000.0,036.4,029.8,020.8,0000.0,0008.38,0005.52,0005.13
2024-05-21 22:52:00,SystemResetWarning,0825.4,4.99,000.00,028.0,027.3,000.0,036.4,029.8,021.4,0000.0,0008.40,0005.52,0005.10
2024-05-21 22:53:00,SystemResetWarning,0825.4,5.02,000.00,028.0,027.3,000.0,036.4,029.8,021.6,0000.0,0008.44,0005.54,0005.08
2024-05-21 22:54:00,SystemResetWarning,0825.4,5.00,000.00,028.0,027.3,000.0,036.5,029.8,021.5,0000.0,0008.46,0005.54,0005.08
2024-05-21 22:55:00,SystemResetWarning,0825.4,4.98,000.00,028.0,027.3,000.0,036.5,029.8,021.5,0000.0,0008.46,0005.52,0005.07
2024-05-21 22:56:00,SystemResetWarning,0825.3,4.99,000.00,028.0,027.2,000.0,036.5,029.8,022.0,0000.0,0008.25,0005.48,0005.07
2024-05-21 22:57:00,SystemResetWarning,0825.3,5.00,000.00,028.0,027.2,000.0,036.5,029.8,022.1,0000.0,0008.30,0005.48,0005.05
2024-05-21 22:58:00,SystemResetWarning,0825.4,5.01,000.00,028.0,027.2,000.0,036.5,029.8,021.8,0000.0,0008.28,0005.45,0005.02
2024-05-21 22:59:00,SystemResetWarning,0825.3,5.01,000.00,028.0,027.2,000.0,036.5,029.8,021.6,0000.0,0008.34,0005.45,0004.99
